Meteo18 Weather Cam more information Meteo18 Weather Cam


Thunder radar more information blitzortung!


Rain radar more information rain snow radar



Select another period ( hide this area )

Units Period Custom range Directly to
Metric English Both
Daily Weekly Monthly Yearly
use both date-selectors for a custom range
previous Day
With this date

WeatherUnderground graphs for this period ( click here )


Daily Summary for Sunday 19 August 2018
Time Temp. ( °C ) Dew pt. ( °C ) Wind ( km/h ) from Gust ( km/h ) Pressure ( hPa ) Humid.( % ) Rainrate ( cm )
High27,7 13,9 9,7 SW ( 28/188 ) 16,1 1023,9 82 -
Average19,1 11,5 1,1 Calm #113/172 2,8 1023,5 63 -
Low14,1 9,3 -   0,0 1022,6 40 -
Daily Tabular details for Sunday 19 August 2018
Time Temp. ( °C ) Dew pt. ( °C ) Wind ( km/h ) from Gust ( km/h ) Pressure ( hPa ) Humid.( % ) Rainrate ( cm )
00:04 17,2 9,9   Calm   1023,6 62 -
00:08 17,1 9,8   Calm   1023,6 62 -
00:14 16,9 9,6   Calm   1023,6 62 -
00:18 16,8 9,7   Calm   1023,6 63 -
00:24 16,9 9,8   Calm   1023,6 63 -
00:28 16,9 9,8   Calm   1023,6 63 -
00:34 16,9 9,8   Calm   1023,6 63 -
00:38 16,7 9,6   Calm   1023,9 63 -
00:44 16,6 9,8   Calm   1023,6 64 -
00:48 16,6 9,8   Calm   1023,6 64 -
00:54 16,6 9,8   Calm   1023,6 64 -
00:58 16,6 9,8   Calm   1023,6 64 -
01:04 16,6 9,8   Calm   1023,6 64 -
01:08 16,4 9,8   Calm   1023,2 65 -
01:14 16,2 9,8   Calm   1023,2 66 -
01:18 16,2 9,6   Calm   1023,2 65 -
01:24 16,1 9,7   Calm   1023,6 66 -
01:28 16,1 9,7   Calm   1023,6 66 -
01:34 16,1 9,7   Calm   1023,6 66 -
01:38 16,2 9,8   Calm   1023,2 66 -
01:44 16,2 9,6   Calm   1023,6 65 -
01:48 16,0 9,7   Calm   1023,2 66 -
01:53 15,8 9,7   Calm   1023,2 67 -
01:59 15,8 9,7   Calm   1023,6 67 -
02:03 15,8 9,7   Calm   1023,6 67 -
02:09 15,6 9,5   Calm   1023,6 67 -
02:13 15,5 9,4   Calm   1023,6 67 -
02:19 15,3 9,4   Calm   1023,6 68 -
02:23 15,2 9,3   Calm   1023,6 68 -
02:29 15,1 9,5   Calm   1023,6 69 -
02:33 15,1 9,7   Calm   1023,6 70 -
02:39 15,1 9,7   Calm   1023,6 70 -
02:43 15,0 9,6   Calm   1023,6 70 -
02:49 14,8 9,6   Calm   1023,6 71 -
02:53 14,7 9,5   Calm   1023,6 71 -
02:59 14,7 9,7 8,0 North 8,0 1023,6 72 -
03:03 14,5 9,3 1,4 NE 9,7 1023,6 71 -
03:09 14,5 9,5   Calm   1023,6 72 -
03:13 14,6 9,6 3,2 WNW 3,2 1023,6 72 -
03:19 14,8 9,8   Calm   1023,6 72 -
03:23 14,9 9,7   Calm 1,6 1023,2 71 -
03:29 14,8 9,6 1,4 WNW 1,6 1023,2 71 -
03:33 14,8 9,6   Calm 1,6 1023,6 71 -
03:39 14,7 9,7   Calm   1023,6 72 -
03:43 14,8 9,6   Calm   1023,6 71 -
03:49 14,7 9,5 3,2 NNE 4,8 1023,6 71 -
03:53 14,6 9,6 3,2 North 3,2 1023,6 72 -
03:57 14,7 9,7 3,2 North 3,2 1023,6 72 -
04:04 14,7 9,7 3,2 NNW 4,8 1023,6 72 -
04:08 14,8 9,8 3,2 NNW 4,8 1023,6 72 -
04:14 15,1 9,9 3,2 NNW 3,2 1023,6 71 -
04:18 15,2 10,0 1,4 NNW 3,2 1023,6 71 -
04:24 15,3 10,1 3,2 NW 3,2 1023,6 71 -
04:28 15,3 10,1 3,2 NW 3,2 1023,6 71 -
04:34 15,6 10,6 1,4 WNW 4,8 1023,6 72 -
04:38 15,7 10,5 1,4 NW 3,2 1023,6 71 -
04:44 15,6 10,6   Calm 1,6 1023,6 72 -
04:48 15,5 10,5 1,4 WNW 1,6 1023,2 72 -
04:54 15,4 10,6 1,4 NNW 3,2 1023,2 73 -
04:58 15,4 10,8 3,2 NW 4,8 1023,2 74 -
05:04 15,4 10,8 1,4 NW 1,6 1023,2 74 -
05:08 15,4 10,8   Calm   1023,2 74 -
05:14 15,3 10,9 3,2 NW 3,2 1023,2 75 -
05:18 15,3 11,1 1,4 NNW 6,4 1023,2 76 -
05:24 15,4 11,0 1,4 NW 3,2 1023,2 75 -
05:28 15,3 11,1 4,7 NW 4,8 1023,2 76 -
05:34 15,3 11,1 1,4 NNW 3,2 1023,2 76 -
05:38 15,3 11,3 1,4 NW 4,8 1023,2 77 -
05:44 15,3 11,3   Calm 1,6 1023,2 77 -
05:48 15,2 11,2   Calm   1023,2 77 -
05:54 15,1 11,1   Calm   1023,2 77 -
05:58 15,0 11,2   Calm   1023,2 78 -
06:02 14,9 10,9   Calm   1023,2 77 -
06:09 14,7 10,9   Calm   1023,2 78 -
06:13 14,5 10,7   Calm   1023,2 78 -
06:19 14,3 10,7   Calm   1023,2 79 -
06:23 14,3 10,9   Calm   1023,2 80 -
06:29 14,3 10,9   Calm   1023,2 80 -
06:33 14,3 11,1   Calm 1,6 1023,2 81 -
06:39 14,3 11,1   Calm 3,2 1023,2 81 -
06:43 14,4 11,2   Calm 3,2 1023,2 81 -
06:49 14,4 11,2 1,4 NNW 3,2 1023,2 81 -
06:53 14,3 11,1   Calm 3,2 1023,2 81 -
06:59 14,1 10,9   Calm 1,6 1023,2 81 -
07:03 14,1 11,1   Calm 1,6 1023,2 82 -
07:09 14,1 10,9   Calm   1023,2 81 -
07:13 14,2 11,0   Calm   1023,6 81 -
07:19 14,3 11,1   Calm   1023,6 81 -
07:23 14,3 10,9   Calm   1023,6 80 -
07:29 14,5 11,3   Calm   1023,6 81 -
07:33 14,9 11,3   Calm   1023,6 79 -
07:39 15,1 11,3   Calm   1023,6 78 -
07:43 15,0 11,4   Calm   1023,6 79 -
07:49 15,2 11,6   Calm   1023,9 79 -
07:53 15,3 11,5   Calm   1023,9 78 -
07:59 15,9 11,7   Calm   1023,6 76 -
08:03 16,4 11,8   Calm   1023,9 74 -
08:09 16,8 11,5   Calm   1023,9 71 -
08:13 17,4 11,9   Calm   1023,9 70 -
08:19 18,6 12,4   Calm   1023,9 67 -
08:23 19,1 12,1   Calm   1023,9 64 -
08:28 19,6 12,6   Calm   1023,9 64 -
08:34 20,4 12,9   Calm   1023,9 62 -
08:38 21,1 12,8   Calm   1023,9 59 -
08:44 21,3 12,7   Calm   1023,9 58 -
08:48 21,4 12,8   Calm   1023,9 58 -
08:54 21,5 12,9   Calm   1023,9 58 -
08:58 21,4 13,1   Calm   1023,9 59 -
09:04 21,3 13,2   Calm   1023,9 60 -
09:08 21,4 13,3   Calm   1023,9 60 -
09:14 21,7 13,3   Calm   1023,9 59 -
09:18 21,8 13,4   Calm   1023,9 59 -
09:24 22,1 13,4   Calm   1023,9 58 -
09:28 22,2 13,3   Calm   1023,9 57 -
09:34 21,6 13,2   Calm   1023,9 59 -
09:38 21,6 13,8   Calm   1023,9 61 -
09:44 22,5 13,6   Calm   1023,9 57 -
09:48 22,9 13,9   Calm   1023,9 57 -
09:54 22,8 13,6 1,4 SW 1,6 1023,9 56 -
09:58 22,5 13,6   Calm 3,2 1023,9 57 -
10:04 22,6 13,6   Calm 1,6 1023,9 57 -
10:08 22,8 13,6 3,2 ENE 3,2 1023,9 56 -
10:14 22,8 13,8   Calm 1,6 1023,9 57 -
10:18 22,9 13,4   Calm 3,2 1023,9 55 -
10:24 22,9 13,4   Calm 4,8 1023,9 55 -
10:28 23,1 13,6   Calm 3,2 1023,9 55 -
10:34 23,3 13,5 1,4 WSW 3,2 1023,9 54 -
10:38 23,4 13,6   Calm 3,2 1023,9 54 -
10:44 23,7 13,6   Calm 4,8 1023,9 53 -
10:48 23,8 13,4 4,7 East 4,8 1023,9 52 -
10:54 23,7 13,0 3,2 East 6,4 1023,9 51 -
10:58 23,7 13,0 3,2 NE 4,8 1023,9 51 -
11:04 23,6 13,2   Calm 3,2 1023,9 52 -
11:08 23,9 13,1   Calm 1,6 1023,9 51 -
11:14 24,2 12,8   Calm   1023,9 49 -
11:18 24,7 13,0 3,2 South 4,8 1023,9 48 -
11:24 24,7 13,0 1,4 ENE 9,7 1023,9 48 -
11:28 24,7 13,0 7,9 SW 8,0 1023,9 48 -
11:34 24,3 12,9   Calm 3,2 1023,9 49 -
11:38 24,7 13,3   Calm 8,0 1023,9 49 -
11:44 24,7 12,3 1,4 ESE 6,4 1023,6 46 -
11:48 24,9 12,5 6,4 SSW 12,9 1023,6 46 -
11:54 24,8 12,7 4,7 WSW 11,3 1023,6 47 -
11:58 24,8 12,4 1,4 SSW 6,4 1023,6 46 -
12:04 25,1 13,0 3,2 SW 4,8 1023,6 47 -
12:08 25,4 12,6 3,2 SE 4,8 1023,6 45 -
12:14 25,9 12,7 3,2 SW 3,2 1023,6 44 -
12:18 25,9 12,7   Calm 8,0 1023,6 44 -
12:24 26,0 12,5 1,4 South 4,8 1023,6 43 -
12:28 26,1 12,5 3,2 South 11,3 1023,2 43 -
12:34 26,1 12,9 3,2 NW 4,8 1023,2 44 -
12:38 26,1 12,9 7,9 SW 8,0 1023,2 44 -
12:44 26,2 12,6   Calm 4,8 1023,2 43 -
12:48 26,6 12,6 3,2 SW 6,4 1023,2 42 -
12:54 26,7 13,1 1,4 SW 6,4 1023,2 43 -
12:58 26,7 12,7   Calm 6,4 1023,2 42 -
13:04 26,9 12,9 4,7 WSW 8,0 1023,2 42 -
13:08 26,8 12,8 7,9 WNW 11,3 1023,2 42 -
13:14 26,2 13,0 4,7 South 8,0 1023,2 44 -
13:18 26,4 13,2   Calm 11,3 1023,2 44 -
13:24 26,4 12,8 3,2 WSW 12,9 1023,2 43 -
13:28 26,2 13,0 1,4 South 8,0 1023,2 44 -
13:32 26,4 13,2   Calm 3,2 1022,9 44 -
13:38 27,3 13,6 4,7 SSE 9,7 1022,9 43 -
13:42 27,2 12,8 1,4 WSW 11,3 1022,9 41 -
13:49 27,2 12,8 4,7 SE 11,3 1022,9 41 -
13:53 26,9 12,9 1,4 SSW 12,9 1022,9 42 -
13:59 27,1 13,1   Calm 4,8 1022,9 42 -
14:03 27,3 13,3 4,7 West 9,7 1022,9 42 -
14:09 27,3 12,9   Calm 4,8 1022,6 41 -
14:13 27,4 13,4   Calm 9,7 1022,6 42 -
14:19 27,7 12,9 9,7 West 16,1 1022,6 40 -
Daily Summary for Sunday 19 August 2018
Time Temp. ( °C ) Dew pt. ( °C ) Wind ( km/h ) from Gust ( km/h ) Pressure ( hPa ) Humid.( % ) Rainrate ( cm )
High27,7 13,9 9,7 SW ( 28/188 ) 16,1 1023,9 82 -
Average19,1 11,5 1,1 Calm #113/172 2,8 1023,5 63 -
Low14,1 9,3 -   0,0 1022,6 40 -
Daily Tabular details for Sunday 19 August 2018
Time Temp. ( °C ) Dew pt. ( °C ) Wind ( km/h ) from Gust ( km/h ) Pressure ( hPa ) Humid.( % ) Rainrate ( cm )
00:04 17,2 9,9   Calm   1023,6 62 -
00:08 17,1 9,8   Calm   1023,6 62 -
00:14 16,9 9,6   Calm   1023,6 62 -
00:18 16,8 9,7   Calm   1023,6 63 -
00:24 16,9 9,8   Calm   1023,6 63 -
00:28 16,9 9,8   Calm   1023,6 63 -
00:34 16,9 9,8   Calm   1023,6 63 -
00:38 16,7 9,6   Calm   1023,9 63 -
00:44 16,6 9,8   Calm   1023,6 64 -
00:48 16,6 9,8   Calm   1023,6 64 -
00:54 16,6 9,8   Calm   1023,6 64 -
00:58 16,6 9,8   Calm   1023,6 64 -
01:04 16,6 9,8   Calm   1023,6 64 -
01:08 16,4 9,8   Calm   1023,2 65 -
01:14 16,2 9,8   Calm   1023,2 66 -
01:18 16,2 9,6   Calm   1023,2 65 -
01:24 16,1 9,7   Calm   1023,6 66 -
01:28 16,1 9,7   Calm   1023,6 66 -
01:34 16,1 9,7   Calm   1023,6 66 -
01:38 16,2 9,8   Calm   1023,2 66 -
01:44 16,2 9,6   Calm   1023,6 65 -
01:48 16,0 9,7   Calm   1023,2 66 -
01:53 15,8 9,7   Calm   1023,2 67 -
01:59 15,8 9,7   Calm   1023,6 67 -
02:03 15,8 9,7   Calm   1023,6 67 -
02:09 15,6 9,5   Calm   1023,6 67 -
02:13 15,5 9,4   Calm   1023,6 67 -
02:19 15,3 9,4   Calm   1023,6 68 -
02:23 15,2 9,3   Calm   1023,6 68 -
02:29 15,1 9,5   Calm   1023,6 69 -
02:33 15,1 9,7   Calm   1023,6 70 -
02:39 15,1 9,7   Calm   1023,6 70 -
02:43 15,0 9,6   Calm   1023,6 70 -
02:49 14,8 9,6   Calm   1023,6 71 -
02:53 14,7 9,5   Calm   1023,6 71 -
02:59 14,7 9,7 8,0 North 8,0 1023,6 72 -
03:03 14,5 9,3 1,4 NE 9,7 1023,6 71 -
03:09 14,5 9,5   Calm   1023,6 72 -
03:13 14,6 9,6 3,2 WNW 3,2 1023,6 72 -
03:19 14,8 9,8   Calm   1023,6 72 -
03:23 14,9 9,7   Calm 1,6 1023,2 71 -
03:29 14,8 9,6 1,4 WNW 1,6 1023,2 71 -
03:33 14,8 9,6   Calm 1,6 1023,6 71 -
03:39 14,7 9,7   Calm   1023,6 72 -
03:43 14,8 9,6   Calm   1023,6 71 -
03:49 14,7 9,5 3,2 NNE 4,8 1023,6 71 -
03:53 14,6 9,6 3,2 North 3,2 1023,6 72 -
03:57 14,7 9,7 3,2 North 3,2 1023,6 72 -
04:04 14,7 9,7 3,2 NNW 4,8 1023,6 72 -
04:08 14,8 9,8 3,2 NNW 4,8 1023,6 72 -
04:14 15,1 9,9 3,2 NNW 3,2 1023,6 71 -
04:18 15,2 10,0 1,4 NNW 3,2 1023,6 71 -
04:24 15,3 10,1 3,2 NW 3,2 1023,6 71 -
04:28 15,3 10,1 3,2 NW 3,2 1023,6 71 -
04:34 15,6 10,6 1,4 WNW 4,8 1023,6 72 -
04:38 15,7 10,5 1,4 NW 3,2 1023,6 71 -
04:44 15,6 10,6   Calm 1,6 1023,6 72 -
04:48 15,5 10,5 1,4 WNW 1,6 1023,2 72 -
04:54 15,4 10,6 1,4 NNW 3,2 1023,2 73 -
04:58 15,4 10,8 3,2 NW 4,8 1023,2 74 -
05:04 15,4 10,8 1,4 NW 1,6 1023,2 74 -
05:08 15,4 10,8   Calm   1023,2 74 -
05:14 15,3 10,9 3,2 NW 3,2 1023,2 75 -
05:18 15,3 11,1 1,4 NNW 6,4 1023,2 76 -
05:24 15,4 11,0 1,4 NW 3,2 1023,2 75 -
05:28 15,3 11,1 4,7 NW 4,8 1023,2 76 -
05:34 15,3 11,1 1,4 NNW 3,2 1023,2 76 -
05:38 15,3 11,3 1,4 NW 4,8 1023,2 77 -
05:44 15,3 11,3   Calm 1,6 1023,2 77 -
05:48 15,2 11,2   Calm   1023,2 77 -
05:54 15,1 11,1   Calm   1023,2 77 -
05:58 15,0 11,2   Calm   1023,2 78 -
06:02 14,9 10,9   Calm   1023,2 77 -
06:09 14,7 10,9   Calm   1023,2 78 -
06:13 14,5 10,7   Calm   1023,2 78 -
06:19 14,3 10,7   Calm   1023,2 79 -
06:23 14,3 10,9   Calm   1023,2 80 -
06:29 14,3 10,9   Calm   1023,2 80 -
06:33 14,3 11,1   Calm 1,6 1023,2 81 -
06:39 14,3 11,1   Calm 3,2 1023,2 81 -
06:43 14,4 11,2   Calm 3,2 1023,2 81 -
06:49 14,4 11,2 1,4 NNW 3,2 1023,2 81 -
06:53 14,3 11,1   Calm 3,2 1023,2 81 -
06:59 14,1 10,9   Calm 1,6 1023,2 81 -
07:03 14,1 11,1   Calm 1,6 1023,2 82 -
07:09 14,1 10,9   Calm   1023,2 81 -
07:13 14,2 11,0   Calm   1023,6 81 -
07:19 14,3 11,1   Calm   1023,6 81 -
07:23 14,3 10,9   Calm   1023,6 80 -
07:29 14,5 11,3   Calm   1023,6 81 -
07:33 14,9 11,3   Calm   1023,6 79 -
07:39 15,1 11,3   Calm   1023,6 78 -
07:43 15,0 11,4   Calm   1023,6 79 -
07:49 15,2 11,6   Calm   1023,9 79 -
07:53 15,3 11,5   Calm   1023,9 78 -
07:59 15,9 11,7   Calm   1023,6 76 -
08:03 16,4 11,8   Calm   1023,9 74 -
08:09 16,8 11,5   Calm   1023,9 71 -
08:13 17,4 11,9   Calm   1023,9 70 -
08:19 18,6 12,4   Calm   1023,9 67 -
08:23 19,1 12,1   Calm   1023,9 64 -
08:28 19,6 12,6   Calm   1023,9 64 -
08:34 20,4 12,9   Calm   1023,9 62 -
08:38 21,1 12,8   Calm   1023,9 59 -
08:44 21,3 12,7   Calm   1023,9 58 -
08:48 21,4 12,8   Calm   1023,9 58 -
08:54 21,5 12,9   Calm   1023,9 58 -
08:58 21,4 13,1   Calm   1023,9 59 -
09:04 21,3 13,2   Calm   1023,9 60 -
09:08 21,4 13,3   Calm   1023,9 60 -
09:14 21,7 13,3   Calm   1023,9 59 -
09:18 21,8 13,4   Calm   1023,9 59 -
09:24 22,1 13,4   Calm   1023,9 58 -
09:28 22,2 13,3   Calm   1023,9 57 -
09:34 21,6 13,2   Calm   1023,9 59 -
09:38 21,6 13,8   Calm   1023,9 61 -
09:44 22,5 13,6   Calm   1023,9 57 -
09:48 22,9 13,9   Calm   1023,9 57 -
09:54 22,8 13,6 1,4 SW 1,6 1023,9 56 -
09:58 22,5 13,6   Calm 3,2 1023,9 57 -
10:04 22,6 13,6   Calm 1,6 1023,9 57 -
10:08 22,8 13,6 3,2 ENE 3,2 1023,9 56 -
10:14 22,8 13,8   Calm 1,6 1023,9 57 -
10:18 22,9 13,4   Calm 3,2 1023,9 55 -
10:24 22,9 13,4   Calm 4,8 1023,9 55 -
10:28 23,1 13,6   Calm 3,2 1023,9 55 -
10:34 23,3 13,5 1,4 WSW 3,2 1023,9 54 -
10:38 23,4 13,6   Calm 3,2 1023,9 54 -
10:44 23,7 13,6   Calm 4,8 1023,9 53 -
10:48 23,8 13,4 4,7 East 4,8 1023,9 52 -
10:54 23,7 13,0 3,2 East 6,4 1023,9 51 -
10:58 23,7 13,0 3,2 NE 4,8 1023,9 51 -
11:04 23,6 13,2   Calm 3,2 1023,9 52 -
11:08 23,9 13,1   Calm 1,6 1023,9 51 -
11:14 24,2 12,8   Calm   1023,9 49 -
11:18 24,7 13,0 3,2 South 4,8 1023,9 48 -
11:24 24,7 13,0 1,4 ENE 9,7 1023,9 48 -
11:28 24,7 13,0 7,9 SW 8,0 1023,9 48 -
11:34 24,3 12,9   Calm 3,2 1023,9 49 -
11:38 24,7 13,3   Calm 8,0 1023,9 49 -
11:44 24,7 12,3 1,4 ESE 6,4 1023,6 46 -
11:48 24,9 12,5 6,4 SSW 12,9 1023,6 46 -
11:54 24,8 12,7 4,7 WSW 11,3 1023,6 47 -
11:58 24,8 12,4 1,4 SSW 6,4 1023,6 46 -
12:04 25,1 13,0 3,2 SW 4,8 1023,6 47 -
12:08 25,4 12,6 3,2 SE 4,8 1023,6 45 -
12:14 25,9 12,7 3,2 SW 3,2 1023,6 44 -
12:18 25,9 12,7   Calm 8,0 1023,6 44 -
12:24 26,0 12,5 1,4 South 4,8 1023,6 43 -
12:28 26,1 12,5 3,2 South 11,3 1023,2 43 -
12:34 26,1 12,9 3,2 NW 4,8 1023,2 44 -
12:38 26,1 12,9 7,9 SW 8,0 1023,2 44 -
12:44 26,2 12,6   Calm 4,8 1023,2 43 -
12:48 26,6 12,6 3,2 SW 6,4 1023,2 42 -
12:54 26,7 13,1 1,4 SW 6,4 1023,2 43 -
12:58 26,7 12,7   Calm 6,4 1023,2 42 -
13:04 26,9 12,9 4,7 WSW 8,0 1023,2 42 -
13:08 26,8 12,8 7,9 WNW 11,3 1023,2 42 -
13:14 26,2 13,0 4,7 South 8,0 1023,2 44 -
13:18 26,4 13,2   Calm 11,3 1023,2 44 -
13:24 26,4 12,8 3,2 WSW 12,9 1023,2 43 -
13:28 26,2 13,0 1,4 South 8,0 1023,2 44 -
13:32 26,4 13,2   Calm 3,2 1022,9 44 -
13:38 27,3 13,6 4,7 SSE 9,7 1022,9 43 -
13:42 27,2 12,8 1,4 WSW 11,3 1022,9 41 -
13:49 27,2 12,8 4,7 SE 11,3 1022,9 41 -
13:53 26,9 12,9 1,4 SSW 12,9 1022,9 42 -
13:59 27,1 13,1   Calm 4,8 1022,9 42 -
14:03 27,3 13,3 4,7 West 9,7 1022,9 42 -
14:09 27,3 12,9   Calm 4,8 1022,6 41 -
14:13 27,4 13,4   Calm 9,7 1022,6 42 -
14:19 27,7 12,9 9,7 West 16,1 1022,6 40 -

Download your copy of this data-set  here

Our weather-data as stored at Weather Underground. Script developed by Jim McMurry. Adapted for the template by Leuven-Template.eu

You find our weather info also at:

Weather Underground

Equipment we use:

Weather-station
Davis Vue

Weather-program
Meteobridge

Weather-server
Raspberry PI 2 B+

Provider
1 and 1

Davis Vue

Meteobridge

Raspberry PI 2 B+

1 and 1